Weather History for Stanley, ND

Change the Weather History Date:

Thursday, March 28, 2013

  Actual Average (KMOT) Record (KMOT)
Temperature  
Mean Temperature 17 °F 34 °F  
Max Temperature 28 °F 44 °F 73 °F (1929)
Min Temperature 6 °F 24 °F -19 °F (1922)
Degree Days  
Heating Degree Days 48 31  
Month to date heating degree days 1046  
Since 1 July heating degree days 7622  
Cooling Degree Days 0 0  
Month to date cooling degree days 0  
Year to date cooling degree days 0  
Moisture  
Dew Point 17 °F    
Average Humidity 97    
Maximum Humidity 100    
Minimum Humidity 85    
Precipitation  
Precipitation 0.00 in 0.04 in 2.18 in (1985)
Month to date precipitation 0.73  
Year to date precipitation 1.64  
Sea Level Pressure  
Sea Level Pressure 30.15 in    
Wind  
Wind Speed 1 mph (ESE)    
Max Wind Speed 6 mph    
Max Gust Speed -    
Visibility 1 miles    
Events Fog , Snow    
T = Trace of Precipitation, MM = Missing Value Source: NWS Daily Summary

Daily Weather History Graph

Daily Weather History Graph

Search for Another Location

Airport:

Trip Planner

Search our weather history database for the weather conditions in past years. The results will help you decide how hot, cold, wet, or windy it might be!

Date:

Astronomy

Mar. 28, 2013 Rise Set
Actual Time 7:35 AM CDT 8:14 PM CDT
Civil Twilight 7:03 AM CDT 8:46 PM CDT
Nautical Twilight 6:26 AM CDT 9:23 PM CDT
Astronomical Twilight 5:47 AM CDT 10:03 PM CDT
Moon 10:21 PM CDT 7:55 AM CDT
Length of Visible Light 13h 42m
Length of Day
12h 39m
Full, 98% of the Moon is Illuminated
Mar 28
Full
Apr 2
Last Quarter
Apr 10
New
Apr 18
First Quarter
Apr 25
Full

Hourly Weather History & Observations

Time (CDT) Temp. Windchill Dew Point Humidity Pressure Visibility Wind Dir Wind Speed Gust Speed Precip Events Conditions
12:15 AM 10.4 °F - 10.4 °F 100% 30.14 in 7.0 mi Calm Calm - N/A   Clear
12:35 AM 10.4 °F - 8.6 °F 92% 30.14 in 1.2 mi Calm Calm - N/A   Clear
12:55 AM 10.4 °F - 8.6 °F 92% 30.14 in 0.2 mi Calm Calm - N/A Fog Light Freezing Fog
1:15 AM 10.4 °F - 8.6 °F 92% 30.14 in 0.2 mi Calm Calm - N/A Fog Light Freezing Fog
1:35 AM 6.8 °F - 5.0 °F 92% 30.13 in 0.2 mi Calm Calm - N/A Fog Light Freezing Fog
1:55 AM 8.6 °F - 6.8 °F 92% 30.13 in 0.2 mi Calm Calm - N/A Fog Light Freezing Fog
2:15 AM 6.8 °F - 5.0 °F 92% 30.14 in 0.2 mi Calm Calm - N/A Fog Light Freezing Fog
2:35 AM 6.8 °F - 5.0 °F 92% 30.13 in 0.2 mi Calm Calm - N/A Fog Light Freezing Fog
2:55 AM 6.8 °F - 5.0 °F 92% 30.14 in 0.2 mi Calm Calm - N/A Fog Light Freezing Fog
3:15 AM 6.8 °F - 5.0 °F 92% 30.14 in 0.2 mi Calm Calm - N/A Fog Light Freezing Fog
3:35 AM 6.8 °F - 5.0 °F 92% 30.13 in 0.2 mi Calm Calm - N/A Fog Light Freezing Fog
3:55 AM 6.8 °F - 5.0 °F 92% 30.13 in 0.2 mi Calm Calm - N/A Fog Light Freezing Fog
4:15 AM 6.8 °F - 3.2 °F 85% 30.13 in 0.2 mi Calm Calm - N/A Fog Light Freezing Fog
4:35 AM 6.8 °F - 5.0 °F 92% 30.13 in 0.2 mi Calm Calm - N/A Fog Light Freezing Fog
4:55 AM 8.6 °F - 5.0 °F 85% 30.13 in 0.2 mi Calm Calm - N/A Fog Light Freezing Fog
5:15 AM 8.6 °F 2.0 °F 6.8 °F 92% 30.13 in 0.5 mi NNE 3.5 mph - N/A Fog Light Freezing Fog
5:35 AM 10.4 °F - 8.6 °F 92% 30.12 in 0.2 mi Calm Calm - N/A Fog Light Freezing Fog
5:55 AM 10.4 °F - 8.6 °F 92% 30.12 in 0.2 mi Calm Calm - N/A Fog Light Freezing Fog
6:15 AM 8.6 °F - 6.8 °F 92% 30.13 in 0.2 mi Calm Calm - N/A Fog Light Freezing Fog
6:35 AM 8.6 °F - 6.8 °F 92% 30.13 in 0.2 mi Calm Calm - N/A Fog Light Freezing Fog
6:55 AM 10.4 °F - 8.6 °F 92% 30.13 in 0.2 mi Calm Calm - N/A Fog Light Freezing Fog
7:15 AM 10.4 °F - 8.6 °F 92% 30.13 in 0.2 mi Calm Calm - N/A Fog Light Freezing Fog
7:35 AM 10.4 °F - 8.6 °F 92% 30.13 in 0.2 mi Calm Calm - N/A Fog Light Freezing Fog
7:55 AM 10.4 °F - 8.6 °F 92% 30.13 in 0.2 mi Calm Calm - N/A Fog Light Freezing Fog
8:15 AM 10.4 °F - 8.6 °F 92% 30.14 in 0.2 mi Calm Calm - N/A Snow Heavy Snow
8:35 AM 10.4 °F - 8.6 °F 92% 30.14 in 0.2 mi Calm Calm - N/A Fog Light Freezing Fog
8:55 AM 12.2 °F - 10.4 °F 92% 30.14 in 0.2 mi Calm Calm - N/A Fog Light Freezing Fog
9:15 AM 14.0 °F - 12.2 °F 93% 30.14 in 0.2 mi Calm Calm - N/A Fog Light Freezing Fog
9:35 AM 15.8 °F - 14.0 °F 93% 30.15 in 0.2 mi Calm Calm - N/A Fog Light Freezing Fog
9:55 AM 15.8 °F - 14.0 °F 93% 30.15 in 0.2 mi Calm Calm - N/A Fog Light Freezing Fog
10:15 AM 17.6 °F - 15.8 °F 93% 30.15 in 0.2 mi Calm Calm - N/A Fog Light Freezing Fog
10:35 AM 19.4 °F - 19.4 °F 100% 30.15 in 0.2 mi Calm Calm - N/A Fog Light Freezing Fog
10:55 AM 19.4 °F - 19.4 °F 100% 30.15 in 0.2 mi Calm Calm - N/A Fog Light Freezing Fog
11:15 AM 19.4 °F - 19.4 °F 100% 30.16 in 0.2 mi Calm Calm - N/A Fog Light Freezing Fog
11:35 AM 19.4 °F - 19.4 °F 100% 30.16 in 0.2 mi Calm Calm - N/A Fog Light Freezing Fog
11:55 AM 21.2 °F - 21.2 °F 100% 30.16 in 0.2 mi Calm Calm - N/A Fog Light Freezing Fog
12:15 PM 21.2 °F - 21.2 °F 100% 30.17 in 0.2 mi Calm Calm - N/A Fog Light Freezing Fog
12:35 PM 23.0 °F - 23.0 °F 100% 30.17 in 0.2 mi Calm Calm - N/A Fog Light Freezing Fog
12:55 PM 24.8 °F - 24.8 °F 100% 30.16 in 1.0 mi Calm Calm - N/A   Overcast
1:15 PM 24.8 °F - 24.8 °F 100% 30.17 in 2.0 mi Calm Calm - N/A   Mostly Cloudy
1:35 PM 24.8 °F - 24.8 °F 100% 30.16 in 5.0 mi Calm Calm - N/A   Scattered Clouds
1:55 PM 24.8 °F 20.5 °F 24.8 °F 100% 30.16 in 10.0 mi ESE 3.5 mph - N/A   Clear
2:15 PM 26.6 °F 21.2 °F 26.6 °F 100% 30.16 in 10.0 mi ESE 4.6 mph - N/A   Clear
2:35 PM 26.6 °F 21.2 °F 26.6 °F 100% 30.16 in 0.2 mi SE 4.6 mph - N/A Fog Light Freezing Fog
2:55 PM 26.6 °F 22.6 °F 26.6 °F 100% 30.16 in 0.2 mi ESE 3.5 mph - N/A Fog Light Freezing Fog
3:15 PM 26.6 °F 22.6 °F 26.6 °F 100% 30.16 in 0.2 mi SE 3.5 mph - N/A Fog Light Freezing Fog
3:35 PM 26.6 °F 22.6 °F 26.6 °F 100% 30.16 in - SE 3.5 mph - N/A   Overcast
3:55 PM 26.6 °F 21.2 °F 26.6 °F 100% 30.15 in 1.2 mi SE 4.6 mph - N/A   Mostly Cloudy
4:15 PM 28.4 °F 23.3 °F 28.4 °F 100% 30.15 in 2.5 mi ESE 4.6 mph - N/A   Clear
4:35 PM 28.4 °F 22.2 °F 28.4 °F 100% 30.15 in 5.0 mi East 5.8 mph - N/A   Clear
4:55 PM 26.6 °F 21.2 °F 26.6 °F 100% 30.15 in 3.0 mi East 4.6 mph - N/A   Partly Cloudy
5:15 PM 26.6 °F 20.0 °F 26.6 °F 100% 30.15 in 0.8 mi East 5.8 mph - N/A   Overcast
5:35 PM 26.6 °F 21.2 °F 26.6 °F 100% 30.15 in 0.2 mi East 4.6 mph - N/A Fog Light Freezing Fog
5:55 PM 26.6 °F 21.2 °F 26.6 °F 100% 30.15 in 0.2 mi SE 4.6 mph - N/A Fog Light Freezing Fog
6:15 PM 26.6 °F 22.6 °F 26.6 °F 100% 30.15 in 0.2 mi ESE 3.5 mph - N/A Fog Light Freezing Fog
6:35 PM 26.6 °F 22.6 °F 26.6 °F 100% 30.15 in 0.2 mi ESE 3.5 mph - N/A Fog Light Freezing Fog
6:55 PM 26.6 °F 21.2 °F 26.6 °F 100% 30.15 in 0.2 mi ESE 4.6 mph - N/A Fog Light Freezing Fog
7:15 PM 24.8 °F 19.1 °F 24.8 °F 100% 30.16 in 0.2 mi East 4.6 mph - N/A   Overcast
7:35 PM 24.8 °F 20.5 °F 24.8 °F 100% 30.16 in 0.2 mi ESE 3.5 mph - N/A Fog Light Freezing Fog
7:55 PM 23.0 °F 18.4 °F 23.0 °F 100% 30.15 in 0.2 mi East 3.5 mph - N/A Fog Light Freezing Fog
8:15 PM 23.0 °F 18.4 °F 23.0 °F 100% 30.16 in 0.2 mi East 3.5 mph - N/A Fog Light Freezing Fog
8:35 PM 23.0 °F 18.4 °F 23.0 °F 100% 30.16 in 0.2 mi SE 3.5 mph - N/A Fog Light Freezing Fog
8:55 PM 23.0 °F 18.4 °F 23.0 °F 100% 30.16 in 0.2 mi ESE 3.5 mph - N/A Fog Light Freezing Fog
9:15 PM 23.0 °F - 23.0 °F 100% 30.16 in 0.2 mi Calm Calm - N/A Fog Light Freezing Fog
9:35 PM 21.2 °F - 21.2 °F 100% 30.16 in 0.2 mi Calm Calm - N/A Fog Light Freezing Fog
9:55 PM 21.2 °F 16.4 °F 21.2 °F 100% 30.16 in 0.2 mi East 3.5 mph - N/A Fog Light Freezing Fog
10:15 PM 19.4 °F - 19.4 °F 100% 30.17 in 0.2 mi Calm Calm - N/A Fog Light Freezing Fog
10:35 PM 19.4 °F - 19.4 °F 100% 30.16 in 0.2 mi Calm Calm - N/A Fog Light Freezing Fog
10:55 PM 19.4 °F 14.3 °F 19.4 °F 100% 30.17 in 0.2 mi South 3.5 mph - N/A Fog Light Freezing Fog
11:15 PM 17.6 °F - 17.6 °F 100% 30.16 in 0.2 mi Calm Calm - N/A Fog Light Freezing Fog
11:35 PM 17.6 °F - 17.6 °F 100% 30.16 in 0.2 mi Calm Calm - N/A Fog Light Freezing Fog
11:55 PM 15.8 °F - 15.8 °F 100% 30.16 in 0.2 mi Calm Calm - N/A Fog Light Freezing Fog